Simultaneous Nadir Overpasses (SNOs) Predictions

Prediction of SNOs between METOP-A and NOAA-19 Satellite Orbit:

Table of predicted SNOs for the next 14.0 days since TLE Epoch: 8/13/2014
Index Date (METOP-A) Time (METOP-A) Lat,Lon (METOP-A) SZA (METOP-A ) Date (NOAA-19) Time (NOAA-19) Lat,Lon (NOAA-19) SZA (NOAA-19 ) Distance(km) Time Diff (sec)
1 08/19/2014 05:56:42 -74.80, -92.49 118.03 08/19/2014 05:55:35 -74.82, -95.54 117.91 89.06 67
2 08/19/2014 06:47:32 74.24, 73.37 61.47 08/19/2014 06:46:21 74.26, 73.26 61.49 3.73 71
3 08/19/2014 07:38:15 -74.20,-119.42 118.57 08/19/2014 07:37:25 -74.22,-119.42 118.54 2.54 50
4 08/19/2014 08:28:55 74.17, 47.86 61.43 08/19/2014 08:28:23 74.18, 47.93 61.44 2.50 32
5 08/19/2014 09:19:37 -74.18,-144.80 118.56 08/19/2014 09:19:28 -74.20,-144.87 118.54 2.83 9
6 08/19/2014 10:10:17 74.16, 22.47 61.43 08/19/2014 10:10:26 74.16, 22.48 61.44 0.51 9
7 08/19/2014 11:01:00 -74.11,-170.31 118.60 08/19/2014 11:01:30 -74.13,-170.20 118.59 3.80 30
8 08/19/2014 11:51:39 74.14, -2.91 61.44 08/19/2014 11:52:29 74.13, -2.97 61.43 1.63 50
9 08/19/2014 12:42:22 -74.09, 164.30 118.59 08/19/2014 12:43:33 -74.10, 164.35 118.60 1.72 71
10 08/19/2014 13:33:14 73.47, -29.84 60.86 08/19/2014 13:34:20 73.53, -26.97 60.81 90.91 66




NCC Satellite Simultaneous Nadir Overpasses (SNOs) Prediction Service
